Location: Auckland
(36.8500°S, 174.7800°E)
Time: 08:55:57
(UTC+12:00)

ISS - Pass Details

Date: 17 March 2026
Orbit: 416 x 424 km, 51.6° (Epoch: 11 April)

Event Time Altitude Azimuth Distance (km) Brightness Sun altitude
Exits shadow 06:12:47 16° 334° (NNW) 1,183 -1.8 -14.3°
Maximum altitude 06:15:13 48° 45° (NE) 558 -2.9 -13.8°
Drops below altitude 10° 06:18:32 10° 120° (ESE) 1,517 0.3 -13.2°
Sets 06:20:41 0° 126° (SE) 2,389 1.4 -12.7°
